This demonstration page uses our WeatherBlox Daily Observations layout. Learn more.

Left ArrowRight Arrow

34.16533, -84.80231

Hourly Observations for October 20, 2021

Temp ( °F °C ) Dew Point ( °F °C ) Humidity (%) Winds ( mph kmh ) Pressure ( in mb ) Visibility ( mi km ) Precip ( " mm )
12:15 am 00:15 Mostly Clear 54 12 52 11 94 94 N N/A 30.25 1025 9 14 N/A
12:35 am 00:35 Mostly Clear 54 12 52 11 94 94 N N/A 30.24 1024 8 13 N/A
12:55 am 00:55 Clear 52 11 52 11 100 100 N N/A 30.25 1024 7 11 N/A
1:15 am 01:15 Partly Cloudy 52 11 52 11 100 100 N N/A 30.25 1024 7 11 N/A
1:35 am 01:35 Mostly Cloudy 52 11 52 11 100 100 N N/A 30.26 1025 7 11 N/A
1:55 am 01:55 Mostly Cloudy 52 11 52 11 100 100 N N/A 30.26 1025 7 11 N/A
2:15 am 02:15 Partly Cloudy 52 11 52 11 100 100 N N/A 30.26 1025 7 11 N/A
2:35 am 02:35 Clear with Mist and Fog 52 11 52 11 100 100 N N/A 30.26 1025 3 5 N/A
2:55 am 02:55 Clear 52 11 50 10 94 94 N N/A 30.26 1025 7 11 N/A
3:15 am 03:15 Clear 50 10 50 10 100 100 N N/A 30.26 1025 7 11 N/A
3:35 am 03:35 Mostly Clear with Mist and Fog 50 10 50 10 100 100 N N/A 30.26 1025 6 10 N/A
3:55 am 03:55 Mostly Clear 50 10 50 10 100 100 N N/A 30.26 1025 7 11 N/A
4:15 am 04:15 Partly Cloudy 50 10 50 10 100 100 N N/A 30.26 1025 7 11 N/A
4:35 am 04:35 Mostly Cloudy 50 10 50 10 100 100 N N/A 30.27 1025 7 11 N/A
4:55 am 04:55 Partly Cloudy with Mist and Fog 50 10 50 10 100 100 N N/A 30.27 1025 6 10 N/A
5:15 am 05:15 Mostly Cloudy 50 10 50 10 100 100 N N/A 30.27 1025 7 11 N/A
5:35 am 05:35 Mostly Cloudy 50 10 50 10 100 100 N N/A 30.28 1025 7 11 N/A
5:55 am 05:55 Partly Cloudy with Mist and Fog 50 10 48 9 94 94 N N/A 30.28 1025 5 8 N/A
6:15 am 06:15 Partly Cloudy with Mist and Fog 50 10 48 9 94 94 N N/A 30.29 1026 4 6 N/A
6:35 am 06:35 Partly Cloudy with Mist and Fog 48 9 48 9 100 100 N N/A 30.29 1026 6 10 N/A
6:55 am 06:55 Mostly Clear with Mist and Fog 48 9 48 9 100 100 N N/A 30.30 1026 6 10 N/A
7:15 am 07:15 Mostly Clear with Mist and Fog 48 9 48 9 100 100 N N/A 30.30 1026 3 5 N/A
7:35 am 07:35 Clear with Mist and Fog 48 9 48 9 100 100 N N/A 30.30 1026 3 5 N/A
7:55 am 07:55 Sunny with Mist and Fog 48 9 48 9 100 100 N N/A 30.31 1026 3 4 N/A
8:15 am 08:15 Sunny with Mist and Fog 48 9 48 9 100 100 N N/A 30.31 1026 4 6 N/A
8:35 am 08:35 Sunny with Mist and Fog 48 9 48 9 100 100 N N/A 30.31 1026 5 8 N/A
8:55 am 08:55 Sunny with Mist and Fog 50 10 50 10 100 100 N N/A 30.31 1026 6 10 N/A
9:15 am 09:15 Sunny 52 11 50 10 94 94 N N/A 30.32 1027 7 11 N/A
9:35 am 09:35 Sunny 54 12 52 11 94 94 N N/A 30.31 1027 8 13 N/A
9:55 am 09:55 Sunny 55 13 54 12 94 94 N N/A 30.32 1027 9 14 N/A
10:15 am 10:15 Sunny 57 14 54 12 88 88 N N/A 30.32 1027 9 14 N/A
10:35 am 10:35 Sunny 59 15 55 13 88 88 N N/A 30.32 1027 10 16 N/A
10:55 am 10:55 Sunny 63 17 55 13 77 77 N N/A 30.31 1026 9 14 N/A
11:15 am 11:15 Sunny 64 18 55 13 73 73 N N/A 30.30 1026 10 16 N/A
11:35 am 11:35 Sunny 68 20 54 12 60 60 N N/A 30.29 1026 10 16 N/A
11:55 am 11:55 Sunny 68 20 54 12 60 60 N N/A 30.29 1026 10 16 N/A
12:15 pm 12:15 Sunny 70 21 54 12 57 57 N N/A 30.28 1025 10 16 N/A
12:35 pm 12:35 Sunny 70 21 54 12 57 57 WNW 3 6 30.28 1025 10 16 N/A
12:55 pm 12:55 Sunny 72 22 55 13 57 57 N N/A 30.27 1025 10 16 N/A
1:15 pm 13:15 Sunny 73 23 55 13 53 53 N N/A 30.25 1025 10 16 N/A
1:35 pm 13:35 Sunny 73 23 54 12 50 50 N N/A 30.24 1024 10 16 N/A
1:55 pm 13:55 Sunny 73 23 54 12 50 50 VRB 5 7 30.23 1024 10 16 N/A
2:15 pm 14:15 Sunny 75 24 54 12 47 47 WSW 3 6 30.22 1023 10 16 N/A
2:35 pm 14:35 Sunny 75 24 54 12 47 47 N N/A 30.20 1023 10 16 N/A
2:55 pm 14:55 Sunny 75 24 54 12 47 47 N N/A 30.20 1023 10 16 N/A
3:15 pm 15:15 Sunny 75 24 54 12 47 47 NNW 6 9 30.20 1023 10 16 N/A
3:35 pm 15:35 Sunny 77 25 54 12 44 44 N N/A 30.19 1022 10 16 N/A
3:55 pm 15:55 Sunny 77 25 54 12 44 44 N N/A 30.18 1022 9 14 N/A
4:15 pm 16:15 Sunny 79 26 54 12 42 42 S 7 11 30.18 1022 10 16 N/A
4:35 pm 16:35 Sunny 77 25 54 12 44 44 S 7 11 30.17 1022 10 16 N/A
4:55 pm 16:55 Sunny 75 24 54 12 47 47 SSW 3 6 30.17 1022 10 16 N/A
5:15 pm 17:15 Sunny 77 25 54 12 44 44 S 6 9 30.17 1022 10 16 N/A
5:35 pm 17:35 Sunny 75 24 55 13 50 50 N N/A 30.17 1022 10 16 N/A
5:55 pm 17:55 Sunny 75 24 55 13 50 50 N N/A 30.16 1021 10 16 N/A
6:15 pm 18:15 Sunny 75 24 55 13 50 50 N N/A 30.16 1021 10 16 N/A
6:35 pm 18:35 Sunny 73 23 57 14 57 57 N N/A 30.16 1021 10 16 N/A
6:55 pm 18:55 Sunny 70 21 59 15 69 69 N N/A 30.17 1022 10 16 N/A
7:15 pm 19:15 Clear 68 20 59 15 73 73 N N/A 30.17 1022 10 16 N/A
7:35 pm 19:35 Mostly Cloudy with Light Rain 66 19 61 16 83 83 N N/A 30.18 1022 9 14 N/A
7:55 pm 19:55 Cloudy 64 18 61 16 88 88 N N/A 30.19 1022 10 16 N/A
8:15 pm 20:15 Cloudy 64 18 61 16 88 88 N N/A 30.19 1022 10 16 N/A
8:35 pm 20:35 Cloudy 64 18 61 16 88 88 N N/A 30.19 1022 10 16 N/A
8:55 pm 20:55 Cloudy 63 17 61 16 94 94 N N/A 30.19 1022 10 16 N/A
9:15 pm 21:15 Cloudy 63 17 61 16 94 94 N N/A 30.19 1022 10 16 N/A
9:35 pm 21:35 Cloudy 63 17 59 15 88 88 N N/A 30.19 1022 10 16 N/A
9:55 pm 21:55 Cloudy 61 16 59 15 94 94 N N/A 30.19 1022 9 14 N/A
10:15 pm 22:15 Cloudy 63 17 59 15 88 88 N N/A 30.20 1023 10 16 N/A
10:35 pm 22:35 Cloudy 63 17 61 16 94 94 N N/A 30.20 1023 10 16 N/A
10:55 pm 22:55 Mostly Cloudy 61 16 61 16 100 100 N N/A 30.20 1023 9 14 N/A
11:15 pm 23:15 Mostly Cloudy 61 16 59 15 94 94 N N/A 30.20 1023 9 14 N/A
11:35 pm 23:35 Mostly Clear 61 16 59 15 94 94 N N/A 30.20 1023 9 14 N/A
11:55 pm 23:55 Mostly Clear 61 16 59 15 94 94 N N/A 30.20 1023 8 13 N/A

Powered by AerisWeather